Weather History for KAQP - February, 2011

Change the Weather History Date:

Saturday, February 5, 2011

  Actual Average Record
Temperature  
Mean Temperature 19 °F -  
Max Temperature 28 °F 23 °F 48 °F (2005)
Min Temperature 10 °F 6 °F -18 °F (2007)
Degree Days  
Heating Degree Days 46    
Moisture  
Dew Point 20 °F    
Average Humidity 95    
Maximum Humidity 100    
Minimum Humidity 86    
Precipitation  
Precipitation 0.03 in - - ()
Sea Level Pressure  
Sea Level Pressure 29.59 in    
Wind  
Wind Speed 3 mph (NE)    
Max Wind Speed 12 mph    
Max Gust Speed -    
Visibility 7 miles    
Events Snow    
Averages and records for this station are not official NWS values.
T = Trace of Precipitation, MM = Missing Value Source: NWS Daily Summary

Daily Weather History Graph

Daily Weather History Graph

Search for Another Location

Airport or City:

Trip Planner

Search our weather history database for the weather conditions in past years. The results will help you decide how hot, cold, wet, or windy it might be!

Date:

Astronomy

Feb. 05, 2011 Rise Set
Actual Time 7:39 AM CST 5:36 PM CST
Civil Twilight 7:08 AM CST 6:08 PM CST
Nautical Twilight 6:33 AM CST 6:43 PM CST
Astronomical Twilight 5:59 AM CST 7:17 PM CST
Moon 8:23 AM CST (2/5) 8:37 PM CST (2/5)
Length of Visible Light 10h 59m
Length of Day
9h 57m
Waxing Crescent, 6% of the Moon is Illuminated
Feb 5
Waxing Crescent
Feb 11
First Quarter
Feb 18
Full
Feb 24
Last Quarter
Mar 4
New

Hourly Weather History & Observations

Time (CST) Temp. Windchill Dew Point Humidity Pressure Visibility Wind Dir Wind Speed Gust Speed Precip Events Conditions
12:13 AM 12.2 °F 6.1 °F 12.2 °F 100% 29.62 in 7.0 mi SE 3.5 mph - N/A   Clear
12:33 AM 10.4 °F - 10.4 °F 100% 29.62 in 10.0 mi Calm Calm - N/A   Clear
12:54 AM 12.2 °F - 10.4 °F 92% 29.62 in 10.0 mi Calm Calm - N/A   Clear
1:13 AM 12.2 °F - 10.4 °F 92% 29.61 in 10.0 mi Calm Calm - N/A   Clear
1:35 AM 12.2 °F 6.1 °F 12.2 °F 100% 29.61 in 10.0 mi East 3.5 mph - N/A   Clear
1:54 AM 12.2 °F - 12.2 °F 100% 29.61 in 10.0 mi Calm Calm - N/A   Clear
2:14 AM 14.0 °F - 12.2 °F 93% 29.61 in 10.0 mi Calm Calm - N/A   Clear
2:33 AM 15.8 °F - 14.0 °F 93% 29.60 in 10.0 mi Calm Calm - N/A   Clear
2:53 AM 17.6 °F - 15.8 °F 93% 29.59 in 10.0 mi Calm Calm - N/A   Clear
3:15 AM 19.4 °F 14.3 °F 17.6 °F 93% 29.59 in 10.0 mi South 3.5 mph - N/A   Clear
3:35 AM 19.4 °F 11.5 °F 17.6 °F 93% 29.58 in 10.0 mi South 5.8 mph - N/A   Clear
3:54 AM 19.4 °F 12.8 °F 19.4 °F 100% 29.57 in 10.0 mi SSW 4.6 mph - N/A   Scattered Clouds
4:15 AM 19.4 °F - 19.4 °F 100% 29.57 in 10.0 mi Calm Calm - N/A   Scattered Clouds
4:33 AM 21.2 °F - 19.4 °F 93% 29.56 in 10.0 mi Calm Calm - N/A   Mostly Cloudy
4:53 AM 21.2 °F - 21.2 °F 100% 29.56 in 10.0 mi Calm Calm - N/A   Mostly Cloudy
5:14 AM 21.2 °F 16.4 °F 21.2 °F 100% 29.55 in 10.0 mi SSW 3.5 mph - N/A   Clear
5:33 AM 21.2 °F - 19.4 °F 93% 29.54 in 10.0 mi Calm Calm - N/A   Scattered Clouds
5:56 AM 19.4 °F 10.4 °F 17.6 °F 93% 29.54 in 10.0 mi NE 6.9 mph - N/A   Overcast
6:15 AM 19.4 °F 11.5 °F 19.4 °F 100% 29.53 in 10.0 mi East 5.8 mph - N/A   Overcast
6:53 AM 19.4 °F 12.8 °F 17.6 °F 93% 29.54 in 10.0 mi ESE 4.6 mph - N/A   Scattered Clouds
7:13 AM 17.6 °F 9.3 °F 17.6 °F 100% 29.54 in 10.0 mi ENE 5.8 mph - N/A   Mostly Cloudy
7:35 AM 17.6 °F 9.3 °F 15.8 °F 93% 29.54 in 7.0 mi East 5.8 mph - N/A   Overcast
7:54 AM 17.6 °F 9.3 °F 17.6 °F 100% 29.54 in 7.0 mi East 5.8 mph - N/A   Overcast
8:13 AM 19.4 °F 10.4 °F 17.6 °F 93% 29.54 in 7.0 mi East 6.9 mph - N/A   Scattered Clouds
8:33 AM 19.4 °F - 17.6 °F 93% 29.54 in 7.0 mi Calm Calm - N/A   Scattered Clouds
8:54 AM 19.4 °F 12.8 °F 19.4 °F 100% 29.54 in 10.0 mi ESE 4.6 mph - N/A   Mostly Cloudy
9:14 AM 21.2 °F 16.4 °F 19.4 °F 93% 29.54 in 10.0 mi East 3.5 mph - N/A   Mostly Cloudy
9:33 AM 21.2 °F 16.4 °F 19.4 °F 93% 29.54 in 10.0 mi ENE 3.5 mph - N/A   Scattered Clouds
9:53 AM 21.2 °F 16.4 °F 19.4 °F 93% 29.54 in 7.0 mi NE 3.5 mph - N/A   Scattered Clouds
10:13 AM 21.2 °F 16.4 °F 19.4 °F 93% 29.54 in 10.0 mi ESE 3.5 mph - N/A   Clear
10:33 AM 23.0 °F 18.4 °F 21.2 °F 93% 29.55 in 7.0 mi ENE 3.5 mph - N/A   Clear
11:14 AM 23.0 °F 15.8 °F 21.2 °F 93% 29.56 in 7.0 mi NE 5.8 mph - N/A   Clear
11:34 AM 24.8 °F 20.5 °F 21.2 °F 86% 29.56 in 10.0 mi NNE 3.5 mph - N/A   Clear
11:53 AM 24.8 °F - 21.2 °F 86% 29.56 in 7.0 mi Calm Calm - N/A   Clear
12:14 PM 26.6 °F 21.2 °F 23.0 °F 86% 29.56 in 7.0 mi NNE 4.6 mph - N/A   Clear
12:34 PM 26.6 °F 20.0 °F 24.8 °F 93% 29.56 in 10.0 mi North 5.8 mph - N/A   Clear
1:15 PM 26.6 °F 17.5 °F 24.8 °F 93% 29.57 in 7.0 mi NE 9.2 mph - N/A   Clear
1:35 PM 28.4 °F 21.2 °F 26.6 °F 93% 29.57 in 3.0 mi NE 6.9 mph - N/A Snow Light Snow
1:54 PM 28.4 °F 19.1 °F 26.6 °F 93% 29.57 in 2.5 mi NNE 10.4 mph - N/A Snow Light Snow
2:15 PM 26.6 °F 16.8 °F 24.8 °F 93% 29.59 in 2.0 mi NNE 10.4 mph - N/A Snow Light Snow
2:34 PM 26.6 °F 16.2 °F 26.6 °F 100% 29.59 in 1.2 mi NE 11.5 mph - N/A Snow Light Snow
2:54 PM 26.6 °F 17.5 °F 26.6 °F 100% 29.61 in 0.8 mi NE 9.2 mph - N/A Snow Light Snow
3:14 PM 26.6 °F 18.2 °F 26.6 °F 100% 29.61 in 0.8 mi NE 8.1 mph - 0.01 in Snow Light Snow
3:35 PM 26.6 °F 18.2 °F 26.6 °F 100% 29.62 in 1.0 mi NE 8.1 mph - 0.01 in Snow Light Snow
4:14 PM 26.6 °F 18.2 °F 26.6 °F 100% 29.63 in 0.8 mi NE 8.1 mph - N/A Snow Light Snow
5:15 PM 26.6 °F 18.2 °F 26.6 °F 100% 29.66 in 1.0 mi NNE 8.1 mph - 0.01 in Snow Light Snow
6:14 PM 26.6 °F 20.0 °F 26.6 °F 100% 29.69 in 1.5 mi North 5.8 mph - N/A Snow Light Snow
6:33 PM 26.6 °F 19.1 °F 26.6 °F 100% 29.70 in 2.0 mi NNE 6.9 mph - 0.01 in Snow Light Snow
7:33 PM 26.6 °F 19.1 °F 26.6 °F 100% 29.72 in 5.0 mi NNE 6.9 mph - N/A Snow Light Snow
8:15 PM 28.4 °F 21.2 °F 26.6 °F 93% 29.74 in 7.0 mi North 6.9 mph - N/A   Overcast
8:54 PM 28.4 °F 21.2 °F 26.6 °F 93% 29.75 in 7.0 mi North 6.9 mph - N/A   Overcast
9:13 PM 28.4 °F 20.4 °F 26.6 °F 93% 29.76 in 7.0 mi North 8.1 mph - N/A   Overcast
9:34 PM 28.4 °F 18.5 °F 26.6 °F 93% 29.76 in 7.0 mi North 11.5 mph - N/A   Overcast
9:54 PM 28.4 °F 19.1 °F 26.6 °F 93% 29.76 in 7.0 mi North 10.4 mph - N/A   Overcast
10:14 PM 28.4 °F 19.1 °F 26.6 °F 93% 29.77 in 7.0 mi North 10.4 mph - N/A   Overcast
10:33 PM 28.4 °F 19.7 °F 26.6 °F 93% 29.77 in 7.0 mi North 9.2 mph - N/A Snow Light Snow
10:54 PM 28.4 °F 20.4 °F 26.6 °F 93% 29.78 in 7.0 mi North 8.1 mph - N/A   Overcast
11:14 PM 28.4 °F 19.7 °F 26.6 °F 93% 29.79 in 7.0 mi North 9.2 mph - N/A   Overcast
11:34 PM 28.4 °F 19.7 °F 28.4 °F 100% 29.80 in 7.0 mi North 9.2 mph - N/A   Overcast
11:54 PM 28.4 °F 21.2 °F 28.4 °F 100% 29.80 in 7.0 mi North 6.9 mph - N/A   Overcast